User: anonymous   Login
Location: Unspecified
(0.0000°N, 0.0000°E)
Time: 03:44:18
(UTC+00:00)
Language:

ASTRA 1KR - Orbit

View from above orbital plane
View from above orbital plane
View from above satellite
View from above satellite

Ground track
Ground track

The orbit data is extracted from the following two-line orbital elements,

1 29055U 06012A   15247.23593481  .00000090  00000-0  00000+0 0  9992
2 29055   0.0551 312.9682 0003002 224.2961 269.8981  1.00272970 34262
Epoch (UTC): 04 September 2015 05:39:44
Eccentricity: 0.0003002
inclination: 0.0551°
perigee height: 35773 km
apogee height: 35798 km
right ascension of ascending node: 312.9682°
argument of perigee: 224.2961°
revolutions per day: 1.00272970
mean anomaly at epoch: 269.8981°
orbit number at epoch: 3426

The dashed part of the orbit path shows where the satellite is in the earth's shadow,  

DLR